Location: Ao Por, Phuket, Thailand
(8.0591°N, 98.4362°E)
Time: 16:25:43
(UTC+07:00)

N. Korean satellite - Pass Details

Date: 27 September 2021
Orbit: 450 x 495 km, 97.3° (Epoch: 15 October)

Event Time Altitude Azimuth Distance (km) Brightness Sun altitude
Rises 05:01:45 0° 23° (NNE) 2,544 10.5 -18.9°
Reaches altitude 10° 05:03:54 10° 32° (NNE) 1,671 9.7 -18.4°
Maximum altitude 05:07:15 37° 100° (E) 775 8.2 -17.6°
Drops below altitude 10° 05:10:39 10° 169° (S) 1,687 9.4 -16.7°
Sets 05:12:49 0° 177° (S) 2,573 10.3 -16.2°
